Previsão horária em Abanilla

Hoje, 27 Janeiro, Quarta-feira

Tempo Temperatura Precipitação Vento Pressão Humidade
00:00 +13°C° 0 mm 2 m/s 746 mmHg 86%
01:00 +13°C° 0 mm 2 m/s 745 mmHg 86%
02:00 +13°C° 0 mm 2 m/s 745 mmHg 85%
03:00 +13°C° 0 mm 2 m/s 745 mmHg 85%
04:00 +13°C° 0 mm 2 m/s 745 mmHg 85%
05:00 +12°C° 0 mm 3 m/s 745 mmHg 85%
06:00 +13°C° 0 mm 3 m/s 745 mmHg 85%
07:00 +14°C° 0 mm 3 m/s 745 mmHg 81%
08:00 +16°C° 0 mm 3 m/s 745 mmHg 78%
09:00 +17°C° 0 mm 3 m/s 746 mmHg 75%
10:00 +18°C° 0 mm 4 m/s 746 mmHg 69%
11:00 +20°C° 0 mm 6 m/s 746 mmHg 62%
12:00 +21°C° 0 mm 7 m/s 746 mmHg 56%
13:00 +21°C° 0 mm 7 m/s 746 mmHg 55%
14:00 +22°C° 0 mm 8 m/s 745 mmHg 53%
15:00 +22°C° 0 mm 8 m/s 745 mmHg 52%
16:00 +21°C° 0 mm 7 m/s 745 mmHg 58%
17:00 +19°C° 0 mm 6 m/s 745 mmHg 63%
18:00 +16°C° 0 mm 5 m/s 745 mmHg 69%
19:00 +16°C° 0 mm 5 m/s 746 mmHg 70%
20:00 +15°C° 0 mm 4 m/s 746 mmHg 72%
21:00 +15°C° 0 mm 4 m/s 746 mmHg 74%
22:00 +16°C° 0 mm 3 m/s 746 mmHg 75%
23:00 +14°C° 0 mm 3 m/s 746 mmHg 76%

Amanhã, 28 Janeiro, Quinta-feira

Tempo Temperatura Precipitação Vento Pressão Humidade
00:00 +14°C° 0 mm 3 m/s 746 mmHg 77%
01:00 +14°C° 0 mm 3 m/s 746 mmHg 78%
02:00 +14°C° 0 mm 2 m/s 745 mmHg 79%
03:00 +14°C° 0 mm 2 m/s 745 mmHg 79%
04:00 +14°C° 0 mm 2 m/s 745 mmHg 80%
05:00 +13°C° 0 mm 2 m/s 745 mmHg 80%
06:00 +13°C° 0 mm 2 m/s 745 mmHg 81%
07:00 +14°C° 0 mm 2 m/s 746 mmHg 75%
08:00 +16°C° 0 mm 2 m/s 746 mmHg 69%
09:00 +17°C° 0 mm 2 m/s 746 mmHg 64%
10:00 +19°C° 0 mm 2 m/s 746 mmHg 57%
11:00 +20°C° 0 mm 2 m/s 746 mmHg 49%
12:00 +23°C° 0 mm 2 m/s 746 mmHg 42%
13:00 +24°C° 0 mm 2 m/s 746 mmHg 40%
14:00 +24°C° 0 mm 2 m/s 745 mmHg 38%
15:00 +25°C° 0 mm 2 m/s 744 mmHg 35%
16:00 +23°C° 0 mm 2 m/s 744 mmHg 42%
17:00 +20°C° 0 mm 2 m/s 744 mmHg 49%
18:00 +19°C° 0 mm 1 m/s 744 mmHg 55%
19:00 +18°C° 0 mm 1 m/s 744 mmHg 57%
20:00 +18°C° 0 mm 1 m/s 744 mmHg 58%
21:00 +16°C° 0 mm 1 m/s 744 mmHg 60%
22:00 +16°C° 0 mm 1 m/s 744 mmHg 61%
23:00 +16°C° 0 mm 1 m/s 744 mmHg 63%

Depois de amanhã, 29 Janeiro, Sexta-feira

Tempo Temperatura Precipitação Vento Pressão Humidade
00:00 +16°C° 0 mm 1 m/s 744 mmHg 64%
01:00 +15°C° 0 mm 1 m/s 744 mmHg 65%
02:00 +15°C° 0 mm 1 m/s 743 mmHg 65%
03:00 +15°C° 0 mm 1 m/s 743 mmHg 66%
04:00 +14°C° 0 mm 2 m/s 743 mmHg 65%
05:00 +14°C° 0 mm 2 m/s 743 mmHg 64%
06:00 +14°C° 0 mm 2 m/s 742 mmHg 63%
07:00 +15°C° 0 mm 2 m/s 743 mmHg 58%
08:00 +17°C° 0 mm 2 m/s 744 mmHg 54%
09:00 +18°C° 0 mm 3 m/s 744 mmHg 49%
10:00 +19°C° 0 mm 3 m/s 744 mmHg 46%
11:00 +21°C° 0 mm 4 m/s 744 mmHg 42%
12:00 +23°C° 0 mm 4 m/s 744 mmHg 38%
13:00 +23°C° 0 mm 4 m/s 744 mmHg 37%
14:00 +25°C° 0 mm 4 m/s 743 mmHg 36%
15:00 +25°C° 0 mm 4 m/s 743 mmHg 34%
16:00 +22°C° 0 mm 3 m/s 743 mmHg 41%
17:00 +19°C° 0 mm 2 m/s 743 mmHg 49%
18:00 +17°C° 0 mm 2 m/s 742 mmHg 56%
19:00 +16°C° 0 mm 1 m/s 742 mmHg 58%
20:00 +16°C° 0 mm 1 m/s 742 mmHg 59%
21:00 +15°C° 0 mm 1 m/s 742 mmHg 61%
22:00 +15°C° 0 mm 1 m/s 742 mmHg 63%
23:00 +15°C° 0 mm 1 m/s 742 mmHg 65%

30 Janeiro, Sábado

Tempo Temperatura Precipitação Vento Pressão Humidade
00:00 +14°C° 0 mm 1 m/s 741 mmHg 67%
01:00 +14°C° 0 mm 1 m/s 741 mmHg 68%
02:00 +14°C° 0 mm 2 m/s 740 mmHg 68%
03:00 +13°C° 0 mm 2 m/s 740 mmHg 68%
04:00 +14°C° 0 mm 2 m/s 739 mmHg 69%
05:00 +13°C° 0 mm 3 m/s 738 mmHg 69%
06:00 +13°C° 0 mm 3 m/s 738 mmHg 69%
07:00 +13°C° 0 mm 4 m/s 738 mmHg 67%
08:00 +14°C° 0 mm 4 m/s 738 mmHg 65%
09:00 +15°C° 0 mm 5 m/s 739 mmHg 63%
10:00 +17°C° 0 mm 7 m/s 738 mmHg 55%
11:00 +18°C° 0 mm 10 m/s 738 mmHg 47%
12:00 +19°C° 0 mm 12 m/s 738 mmHg 39%
13:00 +19°C° 0 mm 12 m/s 738 mmHg 38%
14:00 +19°C° 0 mm 12 m/s 737 mmHg 36%
15:00 +19°C° 0 mm 12 m/s 737 mmHg 34%
16:00 +17°C° 0 mm 10 m/s 737 mmHg 38%
17:00 +16°C° 0 mm 8 m/s 737 mmHg 42%
18:00 +14°C° 0 mm 7 m/s 737 mmHg 45%
19:00 +13°C° 0 mm 6 m/s 738 mmHg 48%
20:00 +13°C° 0 mm 6 m/s 738 mmHg 51%
21:00 +11°C° 0 mm 6 m/s 738 mmHg 54%
22:00 +10°C° 0 mm 6 m/s 739 mmHg 55%
23:00 +10°C° 0 mm 6 m/s 739 mmHg 56%

31 Janeiro, Domingo

Tempo Temperatura Precipitação Vento Pressão Humidade
00:00 +9°C° 0 mm 6 m/s 739 mmHg 57%
01:00 +9°C° 0 mm 7 m/s 739 mmHg 59%
02:00 +9°C° 0 mm 7 m/s 739 mmHg 60%
03:00 +8°C° 0 mm 7 m/s 739 mmHg 61%
04:00 +8°C° 0 mm 7 m/s 739 mmHg 61%
05:00 +8°C° 0 mm 6 m/s 739 mmHg 61%
06:00 +8°C° 0 mm 5 m/s 739 mmHg 61%
07:00 +9°C° 0 mm 5 m/s 739 mmHg 58%
08:00 +10°C° 0 mm 5 m/s 740 mmHg 56%
09:00 +12°C° 0 mm 5 m/s 740 mmHg 54%
10:00 +14°C° 0 mm 7 m/s 740 mmHg 51%
11:00 +16°C° 0 mm 8 m/s 740 mmHg 48%
12:00 +18°C° 0 mm 10 m/s 740 mmHg 45%
13:00 +18°C° 0 mm 10 m/s 740 mmHg 45%
14:00 +18°C° 0 mm 10 m/s 739 mmHg 45%
15:00 +18°C° 0 mm 10 m/s 739 mmHg 45%
16:00 +17°C° 0 mm 9 m/s 739 mmHg 50%
17:00 +16°C° 0 mm 7 m/s 739 mmHg 55%
18:00 +14°C° 0 mm 5 m/s 740 mmHg 59%
19:00 +14°C° 0 mm 5 m/s 740 mmHg 62%
20:00 +13°C° 0 mm 5 m/s 740 mmHg 65%
21:00 +13°C° 0 mm 4 m/s 740 mmHg 68%
22:00 +12°C° 0 mm 5 m/s 740 mmHg 70%
23:00 +12°C° 0 mm 5 m/s 740 mmHg 72%

1 Fevereiro, Segunda-feira

Tempo Temperatura Precipitação Vento Pressão Humidade
00:00 +12°C° 0 mm 5 m/s 741 mmHg 73%
01:00 +12°C° 0 mm 5 m/s 740 mmHg 73%
02:00 +11°C° 0 mm 6 m/s 740 mmHg 72%
03:00 +11°C° 0 mm 6 m/s 740 mmHg 72%
04:00 +10°C° 0 mm 5 m/s 740 mmHg 73%
05:00 +10°C° 0 mm 5 m/s 741 mmHg 73%
06:00 +10°C° 0 mm 5 m/s 741 mmHg 74%
07:00 +12°C° 0 mm 5 m/s 741 mmHg 69%
08:00 +13°C° 0 mm 6 m/s 742 mmHg 65%
09:00 +14°C° 0 mm 6 m/s 743 mmHg 60%
10:00 +16°C° 0 mm 7 m/s 743 mmHg 54%
11:00 +17°C° 0 mm 7 m/s 743 mmHg 48%
12:00 +20°C° 0 mm 8 m/s 743 mmHg 42%
13:00 +20°C° 0 mm 8 m/s 743 mmHg 41%
14:00 +20°C° 0 mm 7 m/s 743 mmHg 41%
15:00 +20°C° 0 mm 7 m/s 742 mmHg 40%
16:00 +17°C° 0 mm 6 m/s 742 mmHg 46%
17:00 +17°C° 0 mm 4 m/s 743 mmHg 52%
18:00 +14°C° 0 mm 3 m/s 743 mmHg 58%
19:00 +13°C° 0 mm 3 m/s 743 mmHg 61%
20:00 +13°C° 0 mm 2 m/s 743 mmHg 64%
21:00 +13°C° 0 mm 2 m/s 744 mmHg 67%
22:00 +12°C° 0 mm 2 m/s 744 mmHg 68%
23:00 +12°C° 0 mm 2 m/s 744 mmHg 70%
Mostrar mais